Dewpoint
4 6 4 2 3 2 3 4 4 3 4 5 4 4 3 2 4 3 3 2 2 4 4 2 0 10 11 10 10 11 12 13 13 13 13 13 13 13 13 12 12 13 12 12
4 6 1 3 3 2 3 2 2 3 3 5 4 5 3 2 3 3 3 3 2 3 4 3 1 -1 9 10 10 9 9 11 11 12 13 13 12 12 12 12 11 12 12 12
5 5 2 2 3 3 2 2 3 3 2 4 4 4 3 2 3 3 3 4 4 3 4 4 2 -1 -1 9 9 8 8 8 9 9 11 11 11 10 11 10 10 11 11 11
4 3 3 3 3 2 4 3 3 3 4 5 3 4 2 1 2 3 2 3 4 4 4 4 2 -1 -1 -1 5 6 7 7 8 9 12 12 12 11 10 8 8 7 6 6
6 5 4 4 3 2 2 3 3 3 4 4 4 5 1 0 2 2 1 2 2 4 4 2 3 -0 -0 -1 -2 -0 2 4 8 10 9 8 7 4 2 1 -0 -1 -1 0
5 4 2 1 3 2 2 3 3 2 3 5 1 4 1 -0 -1 -1 -0 1 2 2 3 1 1 1 -0 -1 -1 -2 -1 1 2 2 1 -1 -2 -2 -3 -3 -3 -3 -3 -2
5 5 4 4 4 3 3 3 6 7 7 4 1 3 -1 -3 -2 -2 -2 -2 -0 1 2 1 1 0 -0 -1 -1 -2 -2 -2 -2 -2 -2 -3 -3 -3 -3 -4 -4 -4 -3 -3
7 6 5 3 3 5 3 2 3 4 3 1 2 3 -3 -3 -3 -2 -2 -3 -3 -3 -1 1 2 -0 -1 -1 -2 -2 -2 -2 -2 -2 -2 -2 -3 -3 -3 -3 -3 -3 -2 -2
5 6 3 4 3 3 5 6 1 4 1 3 0 0 -2 -4 -3 -3 -3 -3 -2 -2 -3 -4 -2 -2 -0 -1 -1 -1 -1 -1 -1 -1 -2 -2 -2 -2 -1 -1 -1 -1 -1 -1
2 5 4 4 3 3 4 1 5 6 6 4 1 0 -3 -4 -4 -6 -6 -6 -5 -3 -3 -3 -3 -1 0 0 -0 0 0 -0 -0 -0 -1 -1 -1 -1 -0 -0 -0 -0 -0 -0
1 2 5 5 6 7 5 4 4 2 2 4 1 -2 -4 -4 -5 -5 -5 -4 -2 -1 -0 -2 -0 1 1 1 1 2 1 1 1 0 -0 -0 0 0 0 0 0 0 -0 -1
0 2 5 4 3 2 3 2 3 4 4 3 2 0 -5 -6 -6 -5 -3 -1 2 0 1 2 1 1 1 2 2 2 2 1 1 1 1 0 0 0 0 0 -0 -0 -0 -0
1 5 6 5 4 3 5 3 3 2 3 6 4 0 -6 -5 -4 -3 -2 -1 2 2 2 3 3 2 2 2 2 2 1 1 1 1 1 1 1 1 0 0 0 0 0 -0
1 4 3 2 2 1 4 3 3 5 7 3 4 0 -3 -3 -2 -3 -3 -3 -0 0 2 3 3 3 3 3 3 2 1 1 1 1 1 1 1 1 1 1 0 0 0 0
3 6 4 2 1 2 3 3 3 5 5 5 2 1 -1 -3 -4 -4 -3 -2 -1 2 2 3 3 3 3 3 3 2 2 1 1 1 1 1 1 1 1 1 0 0 0 0
4 6 5 6 4 2 3 2 2 2 3 2 2 2 -2 -3 -3 -2 -2 -2 -1 -0 2 3 3 3 3 3 2 2 2 1 1 1 1 1 0 0 0 0 0 0 0 1
3 4 4 5 3 4 5 2 1 1 1 2 4 1 -2 -1 -1 -1 -1 -1 -0 0 -0 2 3 2 3 3 2 2 2 1 1 1 1 0 0 0 0 0 0 -0 1 1
4 4 4 4 1 5 -2 -3 -1 -0 -1 -1 0 -1 -2 -2 -2 -1 -1 -1 -1 -1 -1 1 2 2 3 3 2 2 2 2 1 1 0 0 0 1 1 0 -0 0 0 0
3 4 5 4 3 -0 -1 -2 -2 -1 -2 -3 -2 -2 -2 -2 -1 -1 -1 -1 -0 -1 -1 -0 1 1 2 2 2 2 2 2 1 0 0 -0 0 0 0 0 -0 -0 -0 -1
1 2 4 4 4 2 -4 -2 -3 -3 0 -2 -2 -2 -1 -0 2 0 -2 -2 -2 -2 -2 -3 -0 2 2 2 2 2 2 1 1 0 0 -0 0 0 0 -0 -0 -1 -1 -1
4 5 5 4 4 1 -3 -2 -2 -0 -1 0 2 2 2 1 -1 -1 -1 -1 -2 -2 -2 -3 -0 -0 -0 0 1 1 2 1 1 0 -0 -0 -0 -0 -0 -1 -1 -1 -1 -1
3 4 4 3 4 3 -3 -1 -1 -3 0 1 2 2 1 0 -0 -1 -1 -0 -1 -2 -2 -3 -1 -1 -2 1 1 1 0 -0 -0 -0 -1 -1 -0 -1 -1 -1 -1 -2 -2 -2
4 1 1 1 -1 -2 -2 -3 -3 -1 -0 1 2 2 -0 -1 -1 -0 0 0 1 -0 -1 -1 -1 0 1 1 -0 -1 -1 -1 -1 -1 -1 -1 -1 -1 -1 -2 -2 -2 -2 -2
3 1 1 0 -3 -2 -2 -3 -2 -2 -1 -0 1 2 1 -0 -1 -0 1 1 0 0 0 1 1 1 0 -0 -1 -1 -1 -1 -1 -1 -1 -1 -1 -1 -2 -2 -3 -2 -2 -3
-3 -2 2 -0 -2 -3 -3 -2 -3 -3 -3 -3 0 2 2 3 3 2 2 2 2 1 1 1 0 -0 0 0 0 -1 -1 -1 -1 -1 -1 -1 -2 -1 -2 -2 -2 -2 -2 -11
-8 -5 -0 0 -2 -2 -3 -2 -3 -3 -3 -3 1 1 1 1 2 1 2 2 2 2 2 3 4 3 1 2 2 0 -1 -1 -1 -1 -1 -1 -1 -1 -2 -2 -2 -2 -6 -16
Wind_Speed
5 3 11 16 10 1 11 10 12 8 7 8 15 15 14 12 10 12 14 21 24 18 16 16 11 14 19 21 24 25 22 20 21 21 21 20 19 17 17 16 15 16 17 18
2 4 8 6 8 7 10 11 9 5 6 8 9 15 15 14 13 15 17 22 31 25 19 18 11 12 16 21 25 25 23 23 22 21 21 20 18 18 17 17 16 18 19 20
3 3 7 8 8 10 9 14 9 3 5 11 7 14 16 15 18 17 21 16 25 31 23 18 16 13 15 17 18 20 21 22 23 23 23 21 19 19 18 18 19 20 21 22
1 2 13 11 11 11 11 5 7 8 11 6 8 4 6 14 17 18 22 23 18 21 22 21 18 10 15 18 20 20 21 23 23 23 23 22 21 19 19 20 21 22 24 26
2 5 15 13 11 7 3 5 9 4 7 3 8 5 9 7 15 16 22 26 27 20 21 23 23 16 12 19 21 22 22 22 22 23 22 20 19 20 20 21 23 24 25 25
1 1 8 7 3 3 10 8 7 4 5 8 13 11 8 7 10 14 21 25 29 26 23 24 22 26 23 22 24 23 22 22 21 21 19 19 20 20 22 23 24 25 25 25
1 3 3 4 10 7 9 12 4 5 6 7 1 10 14 8 9 8 8 14 21 22 26 30 20 24 26 25 24 24 23 22 21 20 19 18 19 19 20 20 20 18 18 19
5 6 8 6 8 7 14 13 4 6 5 3 3 7 3 7 8 12 15 11 5 14 25 29 36 29 29 27 28 28 26 24 22 20 18 17 17 17 17 17 16 16 17 17
5 2 2 2 3 3 8 6 1 1 1 3 4 4 11 12 10 7 7 9 13 15 15 21 34 29 26 31 30 29 27 23 20 17 16 16 16 16 17 18 18 19 20 20
4 4 4 3 3 2 4 8 4 2 4 5 4 4 5 6 5 2 4 5 7 11 16 19 21 22 27 28 28 25 22 19 17 16 15 15 16 16 17 17 18 19 19 19
7 3 5 5 6 6 4 5 4 3 4 3 2 3 1 1 4 7 9 6 6 5 10 16 17 21 25 26 23 21 18 16 15 15 15 15 15 15 16 16 17 17 17 17
7 2 5 9 2 6 11 12 14 6 6 4 5 6 3 2 5 7 8 5 2 3 6 11 16 23 26 23 21 18 16 16 16 14 13 13 13 14 15 16 16 16 16 16
9 5 5 5 3 3 7 13 13 14 2 8 7 3 0 2 4 3 6 10 6 2 7 12 17 24 25 23 21 20 18 16 15 14 13 13 13 14 15 15 15 15 15 15
14 6 7 7 3 6 9 16 18 13 7 12 16 15 9 11 12 11 13 15 6 7 8 14 18 22 25 25 21 19 18 17 15 14 14 14 14 14 15 15 15 16 16 16
6 6 8 6 3 5 5 13 17 17 17 15 13 19 21 23 22 27 19 9 8 10 14 18 21 23 24 23 22 21 19 18 16 15 14 14 14 15 15 16 16 16 16 15
7 4 5 2 6 7 8 11 12 19 23 23 25 26 20 27 26 27 24 23 18 15 17 21 23 25 26 25 23 21 20 19 17 16 15 15 15 15 16 16 15 15 14 13
8 6 5 3 5 3 6 15 18 14 14 18 20 23 15 16 16 20 20 20 19 21 24 24 27 30 27 25 23 22 20 20 18 17 16 16 16 16 16 16 15 13 11 10
3 7 4 2 5 6 1 3 8 13 19 17 19 22 22 21 24 22 22 24 22 17 16 22 25 29 29 25 23 21 21 21 20 19 18 17 18 16 16 16 15 12 10 10
13 5 3 4 7 6 12 5 6 7 9 14 21 19 22 20 16 26 22 21 22 19 14 14 20 28 28 26 24 24 24 24 23 22 20 18 17 17 17 16 14 12 12 12
6 8 6 3 4 6 1 4 7 6 5 4 7 8 9 4 6 7 8 10 19 22 22 16 18 22 23 24 25 24 25 24 24 21 19 18 17 17 17 15 14 14 14 13
3 3 8 6 5 5 6 7 10 5 1 4 7 7 7 6 10 10 13 10 7 15 17 15 19 21 22 21 21 22 21 22 19 18 18 18 18 18 17 14 15 16 16 15
6 5 4 6 4 10 9 8 6 2 3 2 3 4 6 8 6 7 8 5 4 8 12 15 19 18 17 17 17 17 17 16 18 18 18 18 18 18 16 15 16 18 18 19
4 3 2 6 4 2 14 6 12 5 2 2 3 4 5 3 2 3 4 0 2 5 8 13 16 16 16 16 14 13 13 15 17 17 17 17 17 17 15 17 18 20 21 21
2 2 3 2 4 9 7 12 11 9 11 6 5 4 3 3 4 5 2 2 3 5 7 10 12 13 13 12 11 12 12 14 15 16 17 18 18 15 16 17 19 21 23 22
4 3 2 7 11 12 13 14 15 15 16 16 9 5 4 3 1 0 1 2 3 5 5 6 8 8 9 9 10 12 12 13 15 16 17 17 16 16 17 19 20 21 22 20
12 8 5 3 8 9 8 11 7 12 14 10 10 6 4 3 2 1 0 1 2 4 5 6 7 8 10 12 13 14 13 13 14 15 16 16 15 18 18 19 20 22 21 20
Wind_Direction
353 209 178 179 193 79 167 179 183 185 165 204 232 245 244 251 265 280 281 244 220 233 256 268 260 231 227 220 223 224 220 214 213 216 219 223 229 233 239 246 250 253 255 257
20 176 150 144 170 167 190 177 188 156 145 214 248 253 250 249 254 260 272 248 216 226 243 258 273 244 230 219 223 221 218 221 222 223 227 230 237 240 239 244 250 252 254 256
115 233 197 179 152 169 200 207 190 232 176 227 296 268 246 240 246 248 254 257 236 217 234 249 257 258 233 225 217 216 217 218 225 227 229 230 236 243 248 253 256 256 258 260
344 213 192 177 165 194 187 199 175 175 189 222 200 262 254 228 229 232 242 255 246 217 230 242 251 259 240 235 226 222 220 221 225 228 230 236 241 247 253 258 262 263 263 264
98 174 190 183 167 191 163 171 199 201 216 233 198 249 251 253 241 237 237 243 250 237 227 244 243 245 269 254 239 230 226 226 227 228 232 236 242 249 256 260 262 263 264 264
203 191 207 188 145 238 132 141 140 167 227 241 233 229 248 237 246 240 239 233 237 239 229 244 248 255 257 255 240 233 229 227 227 229 234 240 247 254 259 262 264 265 266 265
100 162 154 192 163 150 192 177 164 206 207 239 76 227 249 249 245 261 271 253 238 231 238 251 233 242 241 245 239 229 229 229 228 229 235 243 251 257 260 263 264 264 264 264
176 183 180 166 199 181 195 199 219 212 207 203 178 236 243 265 271 256 262 261 253 242 235 232 239 253 261 241 230 227 222 220 223 229 237 246 253 257 257 256 258 259 260 261
176 115 91 224 149 194 184 208 57 78 43 258 198 239 276 258 248 236 243 235 251 245 235 236 239 246 235 218 214 213 212 215 222 233 244 252 254 253 254 256 258 260 262 264
186 135 198 141 110 20 250 155 182 226 232 232 178 243 251 149 98 33 303 263 280 259 241 234 230 225 215 209 206 206 209 217 229 239 245 248 250 252 254 257 259 260 261 263
174 214 158 164 200 178 156 195 218 259 243 259 274 195 247 230 123 323 336 336 309 256 240 230 217 208 203 201 199 202 210 220 230 236 239 244 249 252 256 257 259 261 263 264
177 178 180 199 147 237 232 215 206 224 193 228 287 251 142 223 296 299 333 350 50 291 235 207 195 196 196 197 201 206 214 222 227 233 240 245 253 257 260 262 263 264 266 268
171 192 154 178 241 222 225 218 223 230 295 207 233 190 35 191 198 213 358 14 7 151 185 186 184 189 191 194 200 208 214 222 228 232 240 249 254 260 261 261 263 264 265 268
177 192 224 228 121 149 204 220 216 208 225 236 231 256 266 242 245 241 297 301 300 289 206 189 190 192 194 199 205 210 216 223 229 237 246 255 260 261 261 262 264 266 267 268
148 220 223 236 129 168 205 208 213 217 232 240 257 244 241 256 274 291 294 276 260 235 221 209 205 202 204 207 209 214 221 226 230 237 246 253 258 259 260 264 267 269 268 264
172 185 152 243 231 240 247 235 236 230 237 246 251 261 255 260 264 268 269 271 259 253 234 222 213 211 211 214 217 220 225 228 233 241 248 253 257 261 263 267 268 269 271 267
183 160 160 208 165 160 256 232 223 225 230 233 241 246 262 261 255 260 269 271 263 255 246 229 219 218 217 220 224 227 230 234 236 242 249 253 258 259 262 266 266 268 266 257
221 171 175 153 156 237 325 155 229 247 252 241 256 262 264 270 280 279 265 264 265 262 252 233 226 221 222 224 228 232 235 238 241 246 250 251 252 255 260 262 262 258 247 236
218 163 171 191 213 311 280 218 189 201 277 238 241 258 273 285 291 277 265 251 252 251 258 249 222 218 222 228 230 232 235 237 239 242 245 249 251 251 257 260 254 245 235 229
194 247 197 164 216 224 166 169 175 162 264 191 217 255 275 295 271 292 332 267 247 241 254 256 219 213 222 229 230 231 234 236 238 242 246 249 251 253 258 255 245 234 224 218
170 191 210 208 237 262 242 156 162 240 66 167 210 254 261 239 262 295 302 306 263 230 238 224 207 211 216 223 224 228 234 240 244 243 244 245 247 251 255 247 235 226 217 209
202 195 194 211 239 259 141 126 219 72 130 241 249 273 274 273 274 290 306 297 236 220 217 205 200 204 208 210 215 226 235 237 236 237 241 245 247 252 248 238 228 219 211 205
227 266 277 227 225 38 190 235 212 196 233 249 262 308 303 266 271 304 329 324 134 163 179 186 190 196 201 204 212 223 230 232 233 237 241 244 249 252 242 232 224 216 208 205
222 343 250 284 244 250 247 241 236 238 247 251 267 294 269 279 281 284 286 160 164 173 181 191 197 197 202 208 215 219 231 237 236 239 242 245 249 246 233 226 224 218 208 208
291 304 307 272 286 285 266 252 245 249 255 260 245 247 238 242 228 302 64 109 151 155 167 183 199 213 219 222 233 240 238 240 240 240 243 246 248 238 229 227 222 211 211 214
224 225 199 234 7 315 315 333 295 254 260 245 223 220 198 182 174 151 211 242 230 215 196 211 231 232 237 242 244 245 242 243 244 247 251 253 248 233 226 225 218 212 214 216
Height
1513 1510 1503 1503 1506 1505 1504 1509 1511 1513 1515 1518 1516 1514 1512 1514 1514 1513 1511 1510 1515 1522 1527 1529 1529 1530 1532 1535 1538 1540 1543 1547 1549 1550 1552 1554 1554 1556 1558 1559 1561 1562 1563 1564
1517 1510 1505 1510 1510 1508 1508 1508 1511 1514 1514 1518 1512 1511 1509 1509 1510 1510 1510 1509 1508 1517 1523 1527 1527 1528 1529 1531 1534 1537 1539 1544 1545 1547 1549 1550 1552 1553 1554 1555 1556 1557 1558 1559
1518 1516 1513 1509 1509 1509 1510 1508 1509 1508 1512 1517 1515 1505 1503 1503 1506 1507 1507 1507 1507 1510 1518 1524 1525 1525 1526 1528 1531 1533 1535 1538 1542 1544 1546 1546 1548 1549 1550 1551 1551 1552 1553 1554
1513 1512 1511 1509 1508 1507 1511 1512 1512 1515 1515 1515 1513 1502 1494 1493 1498 1502 1502 1502 1505 1505 1513 1518 1521 1521 1522 1525 1527 1530 1532 1535 1538 1541 1541 1543 1544 1545 1545 1546 1547 1547 1548 1548
1514 1512 1510 1509 1509 1510 1510 1514 1514 1516 1512 1514 1515 1518 1489 1494 1492 1493 1497 1498 1500 1503 1507 1511 1514 1517 1518 1521 1523 1526 1528 1530 1533 1535 1537 1538 1539 1540 1540 1541 1542 1542 1542 1542
1514 1514 1512 1508 1514 1513 1515 1516 1517 1517 1515 1517 1503 1509 1488 1487 1485 1484 1488 1491 1495 1497 1501 1507 1509 1512 1515 1517 1520 1522 1524 1526 1528 1530 1532 1533 1534 1535 1536 1536 1536 1536 1536 1536
1514 1514 1513 1512 1512 1515 1514 1513 1521 1521 1520 1509 1510 1508 1487 1479 1481 1482 1483 1486 1489 1493 1500 1501 1503 1505 1508 1511 1514 1517 1520 1522 1524 1526 1527 1528 1529 1530 1530 1531 1531 1531 1531 1532
1508 1513 1511 1509 1507 1509 1509 1507 1508 1516 1508 1498 1516 1500 1480 1477 1481 1483 1482 1485 1486 1487 1488 1492 1496 1498 1501 1507 1510 1513 1516 1519 1521 1522 1523 1524 1525 1526 1526 1527 1527 1527 1528 1528
1499 1508 1511 1511 1510 1510 1510 1514 1511 1513 1521 1510 1491 1491 1480 1473 1477 1481 1483 1485 1485 1486 1486 1487 1489 1493 1497 1501 1505 1508 1512 1515 1518 1519 1520 1520 1521 1522 1523 1523 1523 1523 1523 1523
1496 1508 1510 1512 1512 1512 1507 1506 1514 1517 1512 1504 1493 1492 1476 1474 1474 1477 1478 1480 1481 1480 1480 1483 1485 1487 1491 1496 1500 1505 1509 1511 1514 1515 1516 1517 1518 1518 1519 1519 1519 1519 1518 1518
1496 1497 1510 1512 1509 1507 1511 1507 1507 1502 1500 1495 1490 1480 1473 1476 1477 1479 1479 1479 1477 1477 1478 1479 1481 1484 1488 1492 1498 1503 1505 1508 1511 1512 1512 1513 1514 1514 1514 1514 1515 1515 1515 1514
1496 1496 1501 1500 1500 1502 1499 1497 1498 1498 1502 1499 1499 1483 1477 1479 1480 1480 1479 1478 1478 1475 1475 1477 1478 1482 1485 1491 1497 1499 1502 1506 1508 1509 1509 1509 1510 1510 1511 1511 1511 1511 1511 1510
1492 1496 1498 1502 1504 1502 1500 1496 1495 1494 1499 1501 1492 1477 1478 1479 1480 1480 1479 1477 1477 1478 1477 1478 1478 1480 1484 1488 1493 1497 1500 1503 1504 1504 1506 1506 1507 1506 1507 1508 1507 1507 1506 1506
1487 1488 1479 1473 1476 1481 1492 1489 1489 1495 1495 1490 1483 1481 1474 1472 1473 1476 1476 1477 1475 1476 1476 1478 1480 1482 1484 1487 1491 1495 1497 1499 1500 1501 1503 1503 1503 1504 1504 1505 1504 1504 1503 1503
1487 1486 1484 1482 1482 1484 1484 1484 1486 1490 1489 1488 1479 1476 1477 1471 1466 1469 1473 1474 1474 1473 1474 1474 1477 1479 1481 1485 1488 1490 1493 1495 1496 1498 1498 1498 1499 1501 1501 1501 1500 1499 1499 1498
1484 1482 1486 1487 1485 1485 1486 1483 1482 1482 1481 1478 1478 1470 1471 1470 1470 1469 1469 1470 1470 1470 1471 1473 1475 1477 1478 1482 1485 1487 1490 1492 1493 1494 1494 1495 1494 1496 1496 1496 1496 1495 1495 1494
1477 1481 1483 1477 1486 1490 1486 1475 1475 1473 1471 1473 1472 1462 1466 1465 1465 1464 1463 1463 1462 1463 1465 1467 1469 1471 1475 1477 1481 1483 1486 1488 1488 1490 1490 1490 1490 1490 1492 1494 1493 1490 1492 1492
1477 1475 1477 1474 1483 1478 1459 1464 1465 1465 1462 1464 1464 1458 1458 1459 1459 1458 1457 1456 1455 1457 1457 1459 1461 1465 1469 1473 1477 1479 1481 1483 1483 1485 1486 1487 1488 1486 1488 1490 1490 1487 1488 1490
1477 1475 1475 1471 1470 1462 1457 1460 1464 1463 1455 1455 1455 1453 1454 1455 1455 1447 1447 1448 1450 1452 1452 1453 1455 1460 1466 1470 1473 1476 1477 1478 1480 1482 1482 1483 1482 1483 1484 1485 1485 1485 1487 1488
1474 1473 1471 1476 1467 1462 1451 1457 1459 1461 1453 1452 1453 1453 1452 1454 1447 1441 1443 1443 1443 1446 1447 1449 1452 1457 1463 1466 1468 1471 1472 1474 1475 1477 1478 1478 1478 1479 1480 1481 1482 1484 1485 1486
1469 1470 1467 1469 1464 1455 1450 1456 1460 1457 1449 1450 1451 1451 1451 1450 1447 1444 1442 1440 1438 1440 1443 1446 1449 1454 1458 1461 1464 1466 1468 1469 1471 1472 1473 1474 1475 1477 1477 1478 1479 1481 1482 1483
1461 1462 1462 1463 1465 1458 1449 1457 1455 1447 1449 1449 1449 1448 1447 1445 1444 1442 1440 1438 1437 1438 1440 1443 1447 1451 1454 1457 1460 1462 1464 1466 1467 1468 1469 1471 1472 1473 1473 1474 1476 1477 1479 1481
1462 1459 1452 1452 1446 1445 1446 1444 1446 1446 1447 1447 1447 1445 1444 1443 1442 1441 1440 1439 1438 1439 1440 1443 1446 1449 1452 1455 1457 1459 1461 1462 1463 1465 1466 1467 1468 1468 1470 1471 1472 1474 1476 1478
1464 1466 1459 1453 1442 1445 1445 1444 1444 1445 1446 1446 1445 1444 1443 1442 1442 1441 1440 1440 1439 1440 1442 1444 1447 1449 1451 1453 1455 1456 1457 1459 1460 1461 1462 1463 1464 1465 1466 1467 1469 1471 1473 1475
1463 1463 1460 1451 1446 1445 1442 1441 1441 1442 1443 1443 1443 1443 1443 1443 1443 1442 1442 1441 1441 1442 1443 1445 1447 1449 1450 1451 1453 1454 1455 1456 1457 1458 1459 1459 1460 1461 1463 1464 1466 1468 1471 1474
1457 1453 1451 1445 1450 1449 1443 1441 1440 1439 1439 1440 1442 1442 1442 1442 1443 1443 1443 1443 1443 1444 1444 1445 1447 1448 1448 1449 1450 1452 1452 1453 1454 1455 1455 1455 1456 1457 1459 1461 1463 1465 1468 1470